Location: ???
(60.6398°N, 46.9067°E)
Time: 19:09:57
(UTC+00:00)

Cosmos 1939 Rocket - Pass Details

Date: 08 December 2019
Orbit: 532 x 585 km, 97.4° (Epoch: 17 January)

Event Time Altitude Azimuth Distance (km) Brightness Sun altitude
Exits shadow 13:29:30 16° 57° (ENE) 1,494 4.4 -11.1°
Maximum altitude 13:29:55 16° 49° (NE) 1,481 4.4 -11.1°
Drops below altitude 10° 13:32:24 10° 10° (N) 1,836 5.1 -11.4°
Sets 13:35:08 0° 349° (N) 2,724 6.2 -11.7°
